OBJECT B, 65946

Orbit data source: Space-Track

You're viewing an Uncataloged Satellite

Recently launched and/or uncataloged satellites may have evolving metadata. Metadata may include but not limited to: Owner, Maufacturer, Bus, Motor, and Mission.

OBJECT B, 65946 is a satellite owned by CASC (CN) in LEO that was launched on Mon, 13 Oct 2025 UTC launched from the Jiuquan Satellite Launch Center, China (JSC). Unknown objects in Earth's orbit typically refer to objects detected orbiting the Earth but have not yet been identified or cataloged. These objects could be anything from previously untracked satellites, spent rocket stages, debris from satellite collisions, or even natural meteoroids temporarily captured by Earth's gravity.

Loading next visibility...
Identifier
65946, 2025-227B
Orbit
LEO
Country
Flag of CNCN / PRC
Related business
Manufacturer
BWYIC
Mission
Spacecraft
Bus & Motor
CZ-2 STAGE 2, Unknown motor
Mass
4,006 kg wet, 4,006 kg dry
Launch date (UTC)
2025-10-13 (2 months ago)
Launch vehicle
Unknown
Launch site
Jiuquan Satellite Launch Center, China (JSC)
Object type
Unknown
Shape & HBR
Unknown shape, 1.1 m
Radar Cross Section
RCS unknown

Expand to show TLE details & history
Last TLE update: 13 hours ago

TLE from 13 hours ago
0 OBJECT B
1 65946U 25227B   25340.62835802  .00014740  00000-0  52912-3 0  9994
2 65946  80.1555  30.6624 0021015 214.6068 145.3797 15.28364826  8282
Epoch: 2025-12-06T15:04Z
TLE epoch observation values (Epoch: 2025-12-06T15:04:50.132Z)
Latitude
-0.00011°
Longitude
88.80013°
Altitude
495.594 km
Speed
7.61 km/s
True Right ascension
02h 02m 38s
True Declination
0° 00' 00"
Sunlit
Object was in full shadow at epoch
Visualization orbit readout
Latitude
Unknown
Longitude
Unknown
Altitude
Unknown
Speed
Unknown
Apparent Right ascension
Unknown
Apparent Declination
Unknown
Sunlit
N/A
Visualization observer readout
Local Sidereal Time
02:32:52
Azimuth
Unknown
Elevation
Unknown
Doppler factor
Unknown
Orbital elements
Apogee altitude
492.184 km
Perigee altitude
463.368 km
Semi-major axis
6,855.913 km
Eccentricity
0.0021
Inclination
80.1555°
RAAN
30.6624°
Arg. of periapsis
214.6068°
True anomaly
145.51622°
Mean anomaly
145.3797°
Eccentric anomaly
145.44799°
Mean motion
3.82336 °/min
Orbital period
94.16 mins
BSTAR
0.00052912
Loading maneuver chart data...
Computing Atmospheric mass density...
Loading historical data...
Loading historical data...
Loading historical data...
Loading historical data...
Loading historical data...
Loading historical data...
Loading historical data...
Other satellites on launch #227 in the year 2025 (2025-10-13 UTC)

Documentation

Showing up to 5 results
|